Location: Steilacoom
(47.1700°N, 122.5700°W)
Time: 12:33:11
(UTC-08:00)

ISS - Pass Details

Date: 22 November 2019
Orbit: 411 x 421 km, 51.6° (Epoch: 12 December)

Event Time Altitude Azimuth Distance (km) Brightness Sun altitude
Rises 18:42:48 0° 227° (SW) 2,347 0.9 -22.4°
Reaches altitude 10° 18:44:55 10° 221° (SW) 1,489 -0.4 -22.8°
Enters shadow 18:46:47 28° 204° (SSW) 811 -2.1 -23.1°
